Date String (YYYY-MM-DD hh:mm:ss) UTC,Instrument flags,Ambient pressure (hPa),Sample flow (lpm),Bypass flow (lpm),Sample temperature (°C),Ambient temperature (°C),ASC tube jacket temperature (°C),LED temperature (°C),Box temperature (°C),Sample RH (%),Span deviation,Mass concentration (μg/m³),Mass concentration (μg/m³),Mass concentration (μg/m³)
DateTimeUTC,F1_M11,P_M11,Q1_M11,Q2_M11,T1_M11,T2_M11,T3_M11,T4_M11,T5_M11,U1_M11,ZSPAN_M11,X0_M11,X2_M11,X1_M11
2022-12-10 11:00:00,,0825.7,4.99,0.00,22.0,20.4,00.0,30.9,23.8,09.7,0000.0,0008.11,0003.63,0003.13
2022-12-10 11:01:00,,0825.8,5.03,0.00,22.0,20.3,00.0,30.9,23.8,09.7,0000.0,0007.90,0003.60,0003.12
2022-12-10 11:02:00,,0826.0,4.99,0.00,22.0,20.2,00.0,30.9,23.8,09.7,0000.0,0007.48,0003.61,0003.12
2022-12-10 11:03:00,,0825.8,4.98,0.00,22.0,20.2,00.0,30.9,23.7,09.7,0000.0,0007.39,0003.62,0003.14
2022-12-10 11:04:00,,0825.8,5.01,0.00,22.0,20.7,00.0,30.8,23.8,09.6,0000.0,0007.25,0003.66,0003.16
2022-12-10 11:05:00,,0826.0,5.01,0.00,22.1,21.7,00.0,30.8,24.0,09.5,0000.0,0007.31,0003.69,0003.17
2022-12-10 11:06:00,,0826.0,5.01,0.00,22.1,21.8,00.0,30.9,24.1,09.4,0000.0,0007.43,0003.73,0003.18
2022-12-10 11:07:00,,0825.9,5.00,0.00,22.1,21.6,00.0,30.9,24.1,09.4,0000.0,0007.25,0003.71,0003.20
2022-12-10 11:08:00,,0825.9,5.00,0.00,22.1,21.3,00.0,30.9,24.0,09.4,0000.0,0006.88,0003.70,0003.22
2022-12-10 11:09:00,,0825.7,4.99,0.00,22.1,21.2,00.0,30.9,24.0,09.4,0000.0,0006.85,0003.73,0003.24
2022-12-10 11:10:00,,0825.6,4.99,0.00,22.1,21.0,00.0,30.9,24.0,09.4,0000.0,0006.85,0003.75,0003.26
2022-12-10 11:11:00,,0825.6,5.00,0.00,22.1,20.9,00.0,30.9,24.0,09.3,0000.0,0007.26,0003.78,0003.28
2022-12-10 11:12:00,,0825.7,5.02,0.00,22.1,20.8,00.0,30.9,24.0,09.5,0000.0,0007.58,0003.81,0003.30
2022-12-10 11:13:00,,0825.9,5.01,0.00,22.1,20.7,00.0,30.9,24.0,09.6,0000.0,0008.13,0003.84,0003.31
2022-12-10 11:14:00,,0826.0,4.99,0.00,22.1,20.7,00.0,30.9,24.0,09.7,0000.0,0008.15,0003.84,0003.31
2022-12-10 11:15:00,,0826.0,4.99,0.00,22.1,20.6,00.0,30.9,23.9,09.7,0000.0,0008.02,0003.79,0003.31
2022-12-10 11:16:00,,0826.1,5.03,0.00,22.0,20.4,00.0,30.9,23.8,09.6,0000.0,0008.12,0003.78,0003.29
2022-12-10 11:17:00,,0826.1,4.98,0.00,22.0,20.3,00.0,30.9,23.8,09.7,0000.0,0008.28,0003.74,0003.26
2022-12-10 11:18:00,,0825.8,4.99,0.00,22.0,20.2,00.0,30.9,23.7,08.8,0000.0,0008.40,0003.73,0003.24
2022-12-10 11:19:00,,0825.6,5.02,0.00,22.0,20.2,00.0,30.9,23.7,08.5,0000.0,0008.94,0003.72,0003.20
2022-12-10 11:20:00,,0825.8,4.98,0.00,21.9,20.3,00.0,30.8,23.7,09.0,0000.0,0009.12,0003.69,0003.17
2022-12-10 11:21:00,,0825.7,4.99,0.00,22.0,20.9,00.0,30.8,23.8,09.0,0000.0,0009.26,0003.68,0003.14
2022-12-10 11:22:00,,0826.0,5.01,0.00,22.1,21.9,00.0,30.8,24.0,09.3,0000.0,0009.00,0003.65,0003.10
2022-12-10 11:23:00,,0826.1,5.01,0.00,22.2,22.1,00.0,30.9,24.1,09.8,0000.0,0008.85,0003.66,0003.08
2022-12-10 11:24:00,,0826.2,5.00,0.00,22.2,21.7,00.0,30.9,24.1,09.9,0000.0,0008.49,0003.67,0003.07
2022-12-10 11:25:00,,0826.1,4.99,0.00,22.2,21.4,00.0,30.9,24.0,10.0,0000.0,0008.99,0003.75,0003.07
2022-12-10 11:26:00,,0825.9,4.99,0.00,22.1,21.1,00.0,30.9,24.0,10.2,0000.0,0009.48,0003.82,0003.06
2022-12-10 11:27:00,,0825.8,5.01,0.00,22.1,20.9,00.0,30.9,24.0,10.4,0000.0,0010.50,0003.86,0003.04
2022-12-10 11:28:00,,0825.8,5.02,0.00,22.1,20.8,00.0,30.9,24.0,10.4,0000.0,0010.63,0003.91,0003.05
2022-12-10 11:29:00,,0825.8,4.98,0.00,22.1,20.8,00.0,30.9,24.0,10.4,0000.0,0011.42,0003.95,0003.04
2022-12-10 11:30:00,,0826.0,4.99,0.00,22.1,20.7,00.0,30.9,23.9,10.4,0000.0,0011.54,0003.97,0003.06
2022-12-10 11:31:00,,0826.2,5.03,0.00,22.1,20.7,00.0,30.9,23.9,10.4,0000.0,0011.47,0003.99,0003.07
2022-12-10 11:32:00,,0826.2,4.99,0.00,22.1,20.6,00.0,30.9,23.9,10.4,0000.0,0011.78,0004.00,0003.08
2022-12-10 11:33:00,,0826.2,4.98,0.00,22.1,20.5,00.0,30.9,23.9,10.4,0000.0,0012.21,0003.98,0003.09
2022-12-10 11:34:00,,0826.2,5.01,0.00,22.0,20.4,00.0,30.9,23.8,10.5,0000.0,0012.83,0004.02,0003.11
2022-12-10 11:35:00,,0826.1,5.01,0.00,22.0,20.3,00.0,30.9,23.8,10.6,0000.0,0013.01,0004.03,0003.11
2022-12-10 11:36:00,,0826.2,4.98,0.00,22.0,20.2,00.0,30.9,23.8,10.7,0000.0,0013.15,0003.99,0003.09
2022-12-10 11:37:00,,0826.2,5.02,0.00,22.0,20.1,00.0,30.9,23.7,10.7,0000.0,0012.95,0003.94,0003.07
2022-12-10 11:38:00,,0826.2,4.99,0.00,21.9,20.0,00.0,30.8,23.7,10.8,0000.0,0011.93,0003.89,0003.06
2022-12-10 11:39:00,,0826.2,4.98,0.00,21.9,20.0,00.0,30.8,23.6,10.8,0000.0,0012.22,0003.84,0003.05
2022-12-10 11:40:00,,0826.2,5.03,0.00,21.9,20.1,00.0,30.8,23.6,10.9,0000.0,0011.58,0003.77,0003.04
2022-12-10 11:41:00,,0826.1,4.99,0.00,21.9,21.0,00.0,30.8,23.8,10.9,0000.0,0010.89,0003.75,0003.03
2022-12-10 11:42:00,,0826.2,4.99,0.00,22.0,22.0,00.0,30.8,24.0,10.9,0000.0,0010.95,0003.75,0003.02
2022-12-10 11:43:00,,0826.2,5.00,0.00,22.1,21.9,00.0,30.8,24.0,10.8,0000.0,0010.69,0003.74,0003.02
2022-12-10 11:44:00,,0826.3,5.02,0.00,22.1,21.4,00.0,30.8,24.0,10.8,0000.0,0010.28,0003.79,0003.02
2022-12-10 11:45:00,,0826.3,5.00,0.00,22.1,21.0,00.0,30.8,23.9,10.9,0000.0,0010.21,0003.78,0003.00
2022-12-10 11:46:00,,0826.4,4.99,0.00,22.0,20.8,00.0,30.8,23.8,10.9,0000.0,0010.05,0003.75,0002.99
2022-12-10 11:47:00,,0826.5,4.99,0.00,22.0,20.6,00.0,30.8,23.8,10.9,0000.0,0010.41,0003.75,0002.98
2022-12-10 11:48:00,,0826.5,5.03,0.00,22.0,20.5,00.0,30.8,23.8,10.9,0000.0,0011.22,0003.86,0002.98
2022-12-10 11:49:00,,0826.5,5.00,0.00,22.0,20.4,00.0,30.8,23.8,10.9,0000.0,0013.55,0004.12,0003.02
2022-12-10 11:50:00,,0826.4,4.98,0.00,22.0,20.3,00.0,30.8,23.7,10.9,0000.0,0016.70,0004.50,0003.05
2022-12-10 11:51:00,,0826.3,5.01,0.00,21.9,20.2,00.0,30.8,23.7,10.8,0000.0,0019.58,0004.80,0003.11
2022-12-10 11:52:00,,0826.3,5.01,0.00,21.9,20.2,00.0,30.8,23.7,10.8,0000.0,0022.03,0004.91,0003.13
2022-12-10 11:53:00,,0826.4,4.99,0.00,21.9,20.2,00.0,30.8,23.7,10.8,0000.0,0022.36,0005.02,0003.14
2022-12-10 11:54:00,,0826.3,5.00,0.00,21.9,20.1,00.0,30.8,23.7,10.8,0000.0,0023.00,0005.15,0003.15
2022-12-10 11:55:00,,0826.4,5.02,0.00,21.9,20.1,00.0,30.7,23.7,10.8,0000.0,0025.23,0005.28,0003.15
2022-12-10 11:56:00,,0826.4,4.98,0.00,21.8,20.1,00.0,30.7,23.6,10.8,0000.0,0026.99,0005.43,0003.16
2022-12-10 11:57:00,,0826.4,4.98,0.00,21.8,20.0,00.0,30.7,23.6,10.8,0000.0,0028.16,0005.52,0003.17
2022-12-10 11:58:00,,0826.4,5.03,0.00,21.8,19.9,00.0,30.7,23.5,10.8,0000.0,0028.15,0005.60,0003.18
2022-12-10 11:59:00,,0826.4,4.99,0.00,21.8,19.9,00.0,30.7,23.5,10.7,0000.0,0027.69,0005.58,0003.19
